Regional Weather Roundup
Issued by NWS

Home | Current Version | Previous Version | Text Only | Print | Product List | Glossary On
Versions: 1 2 3 4 5 6 7 8 9 10 11 12 13 14 15 16 17 18 19 20 21 22 23 24 25 26 27 28 29 30 31 32 33 34 35 36 37 38 39 40 41 42 43 44 45 46 47 48 49
000
ASUS46 KPQR 171910
RWROR

OREGON REGIONAL WEATHER ROUNDUP
NATIONAL WEATHER SERVICE PORTLAND OR
1100 AM PST WED DEC 17 2014

NOTE: "FAIR" INDICATES FEW OR NO CLOUDS BELOW 12,000 FEET WITH
NO SIGNIFICANT WEATHER AND/OR OBSTRUCTIONS TO VISIBILITY.

ORZ001>013-172000-
NORTHWEST OREGON


CITY           SKY/WX    TMP DP  RH WIND       PRES   REMARKS
ASTORIA        CLOUDY    48  41  76 NE3       29.82R
NEWPORT        CLOUDY    46  41  81 E3        29.85R
PORTLAND       CLOUDY    45  39  79 E12       29.85S
VANCOUVER WA   LGT RAIN  45  38  76 E7        29.86R
SCAPPOOSE      PTSUNNY   46  38  73 S5        29.86R
HILLSBORO      CLOUDY    44  40  85 W3        29.86R
AURORA         CLOUDY    42  40  92 CALM      29.86R
MCMINNVILLE    CLOUDY    44  38  79 CALM      29.86R
SALEM          CLOUDY    45  39  79 N5        29.84S
CORVALLIS      CLOUDY    45  39  81 CALM      29.86R
EUGENE         CLOUDY    44  40  85 SW3       29.86R
$$

ORZ021-028-172000-
SOUTHWEST OREGON


CITY           SKY/WX    TMP DP  RH WIND       PRES   REMARKS
NORTH BEND     CLOUDY    52  48  87 S7        29.88R
BROOKINGS      CLOUDY    52  49  89 NW7       29.94R
ROSEBURG       LGT RAIN  45  42  89 SE6       29.87R FOG
SEXTON SUMMIT  SNOW      37  37 100 SW14G24   29.84R VSB<1/4 WCI  28
MEDFORD        CLOUDY    47  41  80 N7        29.88R
$$

ORZ014>016-041-172000-
COLUMBIA GORGE


CITY           SKY/WX    TMP DP  RH WIND       PRES   REMARKS
TROUTDALE      CLOUDY    44  37  76 E20G25    29.85S
THE DALLES     CLOUDY    41  38  89 CALM      29.96S FOG
$$

ORZ029>031-041-044-049-050-061>064-502-503-505>511-172000-
EASTERN OREGON


CITY           SKY/WX    TMP DP  RH WIND       PRES   REMARKS
REDMOND        CLOUDY    32  32 100 CALM      29.84S VSB 1
BEND           MOSUNNY   34  34 100 CALM      29.84F
PRINEVILLE     MOSUNNY   41  36  81 SE6       29.84F
KLAMATH FALLS  CLOUDY    39  32  76 S10       29.87S WCI  32
LAKEVIEW       CLOUDY    37  30  75 S12       29.91F WCI  30
HERMISTON      CLOUDY    38  36  92 SW3       29.94F FOG
PENDLETON      FOG       34  34 100 NW9       29.90S VSB 1/4 WCI  27
JOHN DAY       CLOUDY    43  32  64 S22G29    29.87F
MEACHAM        CLOUDY    37  32  82 VRB3      29.86F
LA GRANDE      CLOUDY    43  28  56 S21       29.91F
BAKER CITY     CLOUDY    38  31  76 E13       29.95F WCI  30
BURNS          CLOUDY    35  31  85 N3        29.92F
ROME             N/A     28  25  88 SW5       29.94F WCI  23
ONTARIO        CLOUDY    39  33  79 S5        30.03F
$$


USA.gov is the U.S. government's official web portal to all federal, state and local government web resources and services.